[[[{"header":{"parameterUnit":"kt","parameterCategory":2,"dx":1,"dy":1,"la1":30.253999710083008,"la2":30.299108505249023,"lo1":-89.0895004272461,"lo2":-89.04439544677734,"nx":28,"ny":28,"refTime":"2022-10-06T21:00:00:Z","depth":0,"parameterNumber":1,"parameterNumberName":"U-component_of_WINDS"},"data":[-1.8543,-1.853,-1.8496,-1.8464,-1.8428,-1.84,-1.8378,-1.8347,-1.8312,-1.8273,-1.8244,-1.8206,-1.8156,-1.8111,-1.8076,-1.806,-1.8048,-1.8068,-1.8045,-1.7987,-1.7977,-1.7967,-1.7968,-1.8066,-1.8066,-1.811,-1.8111,-1.8111,-1.8501,-1.8466,-1.844,-1.8391,-1.8367,-1.8327,-1.8283,-1.8266,-1.8242,-1.8199,-1.8169,-1.813,-1.8095,-1.8037,-1.7997,-1.7987,-1.7965,-1.7979,-1.7979,-1.7972,-1.7909,-1.7911,-1.7997,-1.7997,-1.7997,-1.7997,-1.7997,-1.7997,-1.8417,-1.8411,-1.8362,-1.8332,-1.8298,-1.8265,-1.8252,-1.8207,-1.8179,-1.8135,-1.8098,-1.8069,-1.8018,-1.7952,-1.792,-1.7895,-1.7874,-1.7877,-1.7878,-1.788,-1.7887,-1.7827,-1.7886,-1.7886,-1.7886,-1.7885,-1.7885,0,-1.8344,-1.8316,-1.8289,-1.8251,-1.8228,-1.8195,-1.8159,-1.8149,-1.8076,-1.8056,-1.8024,-1.8,-1.795,-1.7915,-1.7869,-1.7835,-1.779,-1.7781,-1.7783,-1.7802,-1.7824,-1.7812,-1.771,-1.778,-1.7779,-1.7778,-1.7778,-1.7777,-1.8257,-1.8254,-1.8186,-1.8171,-1.8143,-1.812,-1.8099,-1.8034,-1.8014,-1.7959,-1.7956,-1.792,-1.7888,-1.7841,-1.7787,-1.7749,-1.7727,-1.7757,-1.7721,-1.7738,-1.7727,-1.7728,-1.7727,-1.7766,-1.7768,-1.7769,-1.777,0,-1.8211,-1.8155,-1.8139,-1.8071,-1.8054,-1.8053,-1.7994,-1.7984,-1.7941,-1.7921,-1.7913,-1.7845,-1.7814,-1.7754,-1.7706,-1.7676,-1.7671,-1.765,-1.7687,-1.768,-1.7702,-1.77,-1.7781,-1.7788,-1.7686,-1.7687,-1.7688,0,-1.8114,-1.8113,-1.8029,-1.8023,-1.8018,-1.7954,-1.795,-1.7913,-1.787,-1.7854,-1.7793,-1.7779,-1.7705,-1.7682,-1.7637,-1.7622,-1.7613,-1.7588,-1.7577,-1.7594,-1.7598,-1.7583,-1.7578,-1.755,-1.755,-1.7549,-1.7549,0,-1.8049,-1.8002,-1.7991,-1.7971,-1.7899,-1.7895,-1.7864,-1.7815,-1.7795,-1.7759,-1.7745,-1.7707,-1.7686,-1.7657,-1.76,-1.7578,-1.7581,-1.7538,-1.7556,-1.7557,-1.756,-1.7561,-1.7647,-1.7549,-1.7549,-1.7549,-1.7548,0,-1.7962,-1.7929,-1.7922,-1.786,-1.7851,-1.7843,-1.7803,-1.7782,-1.7735,-1.7707,-1.7678,-1.7631,-1.7614,-1.7575,-1.755,-1.7537,-1.7519,-1.7494,-1.7494,-1.749,-1.7449,-1.7506,-1.7593,-1.76,-1.7484,-1.7484,-1.7483,0,-1.7902,-1.7881,-1.7826,-1.7821,-1.7803,-1.7737,-1.7727,-1.7688,-1.7649,-1.7627,-1.7583,-1.7559,-1.7518,-1.7502,-1.7497,-1.7451,-1.7468,-1.7447,-1.7413,-1.7413,-1.7429,-1.7508,-1.7537,-1.758,-1.7476,-1.7476,-1.7477,0,-1.7849,-1.7763,-1.7766,-1.774,-1.7679,-1.7664,-1.7653,-1.7615,-1.7603,-1.7565,-1.7554,-1.7517,-1.7484,-1.7459,-1.7416,-1.7415,-1.7454,-1.738,-1.7378,-1.7395,-1.7467,-1.7494,-1.7501,-1.7426,-1.7427,-1.7427,-1.7471,0,-1.7732,-1.7714,-1.772,-1.7667,-1.7646,-1.764,-1.7578,-1.7564,-1.7526,-1.7486,-1.7467,-1.742,-1.738,-1.7373,-1.7336,-1.7351,-1.7339,-1.7305,-1.7264,-1.7317,-1.733,-1.7335,-1.725,-1.7249,-1.7247,-1.7246,0,0,-1.7688,-1.7662,-1.7603,-1.7591,-1.757,-1.7502,-1.7501,-1.7472,-1.7415,-1.7401,-1.7378,-1.7321,-1.7283,-1.7267,-1.7279,-1.7263,-1.726,-1.7244,-1.7292,-1.7298,-1.7303,-1.7317,-1.7324,-1.7244,-1.7243,-1.7243,-1.7243,0,-1.7633,-1.7598,-1.7598,-1.7566,-1.7516,-1.7474,-1.7474,-1.7413,-1.7387,-1.737,-1.7314,-1.7295,-1.7252,-1.7219,-1.7196,-1.7244,-1.7203,-1.7237,-1.7283,-1.7281,-1.7289,-1.7295,-1.7311,-1.7318,-1.7239,-1.724,-1.724,0,-1.757,-1.7525,-1.7519,-1.7468,-1.7435,-1.7418,-1.736,-1.7345,-1.7332,-1.7258,-1.7242,-1.7208,-1.7159,-1.7153,-1.7147,-1.7126,-1.7155,-1.7135,-1.7142,-1.714,-1.7135,-1.7144,-1.7152,-1.7049,-1.7049,-1.7048,0,0,-1.7531,-1.7514,-1.7447,-1.7452,-1.7435,-1.7373,-1.7358,-1.7319,-1.7277,-1.7261,-1.7216,-1.7176,-1.715,-1.7134,-1.7106,-1.7108,-1.7092,-1.7114,-1.7123,-1.7131,-1.7133,-1.713,-1.7139,-1.7047,-1.7047,-1.7047,0,0,-1.7511,-1.7434,-1.7404,-1.7403,-1.7365,-1.7299,-1.7304,-1.7265,-1.7234,-1.7228,-1.716,-1.7147,-1.714,-1.7108,-1.7095,-1.709,-1.7051,-1.7053,-1.7112,-1.7122,-1.7131,-1.7139,-1.7029,0,0,0,0,0,-1.7424,-1.7443,-1.7417,-1.7408,-1.7343,-1.7314,-1.7305,-1.725,-1.7224,-1.7229,-1.7184,-1.7141,-1.7087,-1.7073,-1.7065,-1.708,-1.7027,-1.7031,-1.7034,-1.711,-1.7122,-1.7131,0,0,0,0,0,0,-1.742,-1.7409,-1.7416,-1.7352,-1.7336,-1.7312,-1.7255,-1.7241,-1.7222,-1.7214,-1.7151,-1.7139,-1.7092,-1.7074,-1.7067,-1.7083,-1.7031,-1.7028,-1.7031,-1.7034,-1.7114,-1.7123,-1.7132,0,0,0,0,0,-1.7417,-1.7408,-1.7319,-1.7351,-1.7338,-1.727,-1.7254,-1.7241,-1.7226,-1.7158,-1.7144,-1.7186,-1.7094,-1.7084,-1.707,-1.7088,-1.7035,-1.7033,-1.703,-1.7033,-1.7035,-1.7119,0,0,0,0,0,0,-1.7414,-1.7396,-1.7315,-1.7309,-1.734,-1.727,-1.7257,-1.7242,-1.7169,-1.7157,-1.7189,-1.7184,-1.7095,-1.7087,-1.708,-1.7093,-1.7039,-1.7037,-1.7035,-1.7032,-1.7034,-1.7036,0,0,0,0,0,0,-1.74,-1.7391,-1.7312,-1.7302,-1.7294,-1.727,-1.7259,-1.7239,-1.7169,-1.7205,-1.7198,-1.7188,-1.7106,-1.709,-1.7084,-1.7055,-1.7042,-1.7039,-1.7038,-1.7037,-1.7034,-1.7035,0,0,0,0,0,0,-1.7395,-1.7387,-1.7303,-1.7297,-1.729,-1.7218,-1.7251,-1.7188,-1.7162,-1.7209,-1.7158,-1.7156,-1.711,-1.7102,-1.7087,-1.7061,-1.7056,-1.7042,-1.704,-1.7039,-1.7038,0,0,0,0,0,0,0,-1.7391,-1.7457,-1.7352,-1.7293,-1.7287,-1.7253,-1.7252,-1.725,-1.7161,-1.716,-1.7158,-1.7157,-1.7055,-1.7053,-1.705,-1.7066,0,0,-1.7042,-1.7041,0,0,0,0,0,0,0,0,-1.7459,-1.7457,-1.7352,-1.735,-1.7349,-1.7253,-1.7252,-1.725,-1.7161,-1.716,-1.7158,-1.7157,-1.7055,-1.7053,-1.705,0,0,0,0,0,0,0,0,0,0,0,0,0,0,0,-1.7352,-1.735,0,-1.7253,-1.7252,-1.725,-1.7161,-1.716,-1.7159,-1.7158,-1.7054,-1.7052,-1.7051,0,0,0,0,0,0,0,0,0,0,0,0,0,0,0,0,0,0,0,0,0,0,0,0,0,0,0,0,0,0,0,0,0,0,0,0,0,0,0,0,0,0,0,0,0,0,0,0,0,0,0,0,0,0,0,0,0,0,0,0,0,0,0,0,0,0,0,0,0]}],[{"header":{"parameterUnit":"kt","parameterCategory":2,"dx":1,"dy":1,"la1":30.253999710083008,"la2":30.299108505249023,"lo1":-89.0895004272461,"lo2":-89.04439544677734,"nx":28,"ny":28,"refTime":"2022-10-06T21:00:00:Z","depth":0,"parameterNumber":2,"parameterNumberName":"V-component_of_WINDS"},"data":[-9.563,-9.5719,-9.5773,-9.5898,-9.5966,-9.606,-9.6109,-9.6179,-9.6246,-9.6361,-9.6436,-9.6493,-9.6577,-9.6676,-9.6756,-9.6779,-9.681,-9.6807,-9.6834,-9.6807,-9.6806,-9.6806,-9.679,-9.6812,-9.6812,-9.6855,-9.6855,-9.6855,-9.5616,-9.5686,-9.5767,-9.5881,-9.595,-9.5988,-9.6079,-9.6134,-9.6214,-9.6296,-9.6371,-9.6474,-9.656,-9.6645,-9.6735,-9.6775,-9.6795,-9.6796,-9.6793,-9.6806,-9.6779,-9.6762,-9.6779,-9.6779,-9.6779,-9.6779,-9.6779,-9.6779,-9.5605,-9.5655,-9.5755,-9.5842,-9.5913,-9.5987,-9.6043,-9.6114,-9.619,-9.6292,-9.6335,-9.6425,-9.6513,-9.6642,-9.6696,-9.6766,-9.6772,-9.6787,-9.6791,-9.6793,-9.6792,-9.673,-9.6782,-9.6782,-9.6782,-9.6782,-9.6783,0,-9.5613,-9.5654,-9.5733,-9.5829,-9.5894,-9.5971,-9.6049,-9.6085,-9.6181,-9.6238,-9.6326,-9.6384,-9.6497,-9.6582,-9.6674,-9.6727,-9.6764,-9.6772,-9.6783,-9.6765,-9.674,-9.6757,-9.6713,-9.6769,-9.6769,-9.6769,-9.6769,-9.6769,-9.5607,-9.5656,-9.5783,-9.5831,-9.5887,-9.5961,-9.6016,-9.6097,-9.6151,-9.6256,-9.6293,-9.638,-9.6454,-9.658,-9.6654,-9.6736,-9.6754,-9.6772,-9.6766,-9.675,-9.6757,-9.6754,-9.676,-9.677,-9.677,-9.677,-9.677,0,-9.5599,-9.5681,-9.5774,-9.5891,-9.5922,-9.5969,-9.6068,-9.6118,-9.6179,-9.6255,-9.6277,-9.637,-9.6451,-9.6523,-9.6627,-9.6662,-9.674,-9.6755,-9.6713,-9.672,-9.6744,-9.6742,-9.6805,-9.6818,-9.6795,-9.6795,-9.6795,0,-9.5625,-9.5685,-9.5805,-9.5854,-9.5925,-9.6004,-9.6071,-9.6129,-9.6205,-9.6266,-9.6322,-9.6377,-9.646,-9.6525,-9.6576,-9.6652,-9.667,-9.6701,-9.6714,-9.6697,-9.6693,-9.6723,-9.6722,-9.6738,-9.6737,-9.6737,-9.6737,0,-9.5604,-9.5736,-9.5816,-9.5859,-9.5986,-9.6021,-9.6075,-9.6159,-9.6209,-9.6285,-9.6319,-9.64,-9.6444,-9.6505,-9.657,-9.6564,-9.6663,-9.6668,-9.6695,-9.6694,-9.6711,-9.6709,-9.6749,-9.6736,-9.6736,-9.6736,-9.6736,0,-9.5637,-9.5716,-9.5818,-9.5927,-9.5957,-9.6007,-9.6096,-9.6156,-9.6239,-9.6276,-9.6335,-9.6379,-9.6449,-9.645,-9.6548,-9.6524,-9.6564,-9.6599,-9.6602,-9.6612,-9.6611,-9.6625,-9.6655,-9.6662,-9.6624,-9.6623,-9.6622,0,-9.5593,-9.5716,-9.5785,-9.5877,-9.5944,-9.6006,-9.6063,-9.6134,-9.6188,-9.6251,-9.6308,-9.6376,-9.6391,-9.6422,-9.6461,-9.6521,-9.6554,-9.6519,-9.6605,-9.6608,-9.6585,-9.6614,-9.66,-9.6641,-9.6611,-9.6612,-9.6613,0,-9.5567,-9.5721,-9.5732,-9.5785,-9.5893,-9.5946,-9.601,-9.6097,-9.6136,-9.6206,-9.6262,-9.6357,-9.6374,-9.6422,-9.6464,-9.6501,-9.6534,-9.6512,-9.6515,-9.6515,-9.6609,-9.6598,-9.6605,-9.6554,-9.6555,-9.6557,-9.6604,0,-9.5603,-9.5673,-9.5706,-9.5814,-9.5867,-9.5926,-9.6004,-9.6049,-9.6087,-9.6141,-9.6221,-9.6292,-9.6373,-9.6397,-9.6431,-9.6492,-9.6492,-9.6507,-9.6511,-9.6528,-9.6546,-9.6553,-9.6479,-9.648,-9.648,-9.6481,0,0,-9.5541,-9.5641,-9.571,-9.5776,-9.5825,-9.5884,-9.5941,-9.5994,-9.6097,-9.6129,-9.6133,-9.6275,-9.633,-9.6419,-9.643,-9.6461,-9.6479,-9.6467,-9.6519,-9.6523,-9.6527,-9.6544,-9.655,-9.6482,-9.6482,-9.6482,-9.6482,0,-9.557,-9.5632,-9.5688,-9.5748,-9.5838,-9.5892,-9.5905,-9.6002,-9.6038,-9.6116,-9.6159,-9.6215,-9.6321,-9.6377,-9.6419,-9.6461,-9.6487,-9.6479,-9.6479,-9.6521,-9.6524,-9.6527,-9.6545,-9.655,-9.6483,-9.6483,-9.6483,0,-9.556,-9.5635,-9.5669,-9.5781,-9.5839,-9.5902,-9.5928,-9.5991,-9.6039,-9.6092,-9.6167,-9.6215,-9.6292,-9.6363,-9.6398,-9.6401,-9.6492,-9.6473,-9.6472,-9.6477,-9.6521,-9.6525,-9.6528,-9.6482,-9.6482,-9.6481,0,0,-9.5574,-9.5637,-9.5738,-9.5792,-9.5826,-9.5906,-9.5945,-9.5986,-9.6057,-9.6084,-9.6145,-9.621,-9.6275,-9.6314,-9.6377,-9.6444,-9.6466,-9.647,-9.647,-9.647,-9.6474,-9.6518,-9.6522,-9.648,-9.648,-9.648,0,0,-9.5579,-9.57,-9.5725,-9.5799,-9.5867,-9.5966,-9.5995,-9.6028,-9.6092,-9.6093,-9.616,-9.6179,-9.6247,-9.629,-9.6268,-9.6379,-9.6382,-9.6389,-9.6349,-9.635,-9.635,-9.6337,-9.6299,0,0,0,0,0,-9.5647,-9.5686,-9.5708,-9.5732,-9.5868,-9.5955,-9.5972,-9.6031,-9.6034,-9.6057,-9.6114,-9.6139,-9.6293,-9.6276,-9.6296,-9.6318,-9.6467,-9.6469,-9.6472,-9.6436,-9.6437,-9.6437,0,0,0,0,0,0,-9.5657,-9.5685,-9.5707,-9.5807,-9.5838,-9.5954,-9.5972,-9.5989,-9.6033,-9.6038,-9.6128,-9.6142,-9.619,-9.6269,-9.6287,-9.6307,-9.6294,-9.6468,-9.647,-9.6472,-9.6437,-9.6437,-9.6437,0,0,0,0,0,-9.5665,-9.5688,-9.5892,-9.5807,-9.5834,-9.5922,-9.5971,-9.5986,-9.602,-9.6106,-9.6121,-9.606,-9.6189,-9.6208,-9.628,-9.6298,-9.6282,-9.6288,-9.6469,-9.6471,-9.6472,-9.6437,0,0,0,0,0,0,-9.5671,-9.57,-9.5899,-9.591,-9.5796,-9.5917,-9.5938,-9.5982,-9.6087,-9.6102,-9.6042,-9.6044,-9.6189,-9.6203,-9.6217,-9.6291,-9.6273,-9.6279,-9.6283,-9.6471,-9.6472,-9.6473,0,0,0,0,0,0,-9.5689,-9.5709,-9.5904,-9.5888,-9.5897,-9.5911,-9.593,-9.5997,-9.6087,-9.6016,-9.6022,-9.6041,-9.6166,-9.62,-9.6211,-9.6314,-9.6266,-9.6272,-9.6276,-9.6278,-9.6472,-9.6473,0,0,0,0,0,0,-9.5698,-9.5716,-9.5885,-9.5892,-9.59,-9.6021,-9.5971,-9.6107,-9.6077,-9.6011,-9.6076,-9.6075,-9.6163,-9.6175,-9.6207,-9.6305,-9.6312,-9.6266,-9.627,-9.6273,-9.6275,0,0,0,0,0,0,0,-9.5706,-9.5575,-9.5838,-9.5896,-9.5903,-9.6006,-9.6008,-9.6011,-9.6077,-9.6077,-9.6076,-9.6076,-9.6231,-9.6237,-9.6244,-9.6298,0,0,-9.6265,-9.6268,0,0,0,0,0,0,0,0,-9.5569,-9.5574,-9.5838,-9.5841,-9.5843,-9.6006,-9.6008,-9.6011,-9.6077,-9.6077,-9.6076,-9.6076,-9.6233,-9.6238,-9.6243,0,0,0,0,0,0,0,0,0,0,0,0,0,0,0,-9.5839,-9.584,0,-9.6006,-9.6008,-9.601,-9.6077,-9.6077,-9.6076,-9.6076,-9.6234,-9.6239,-9.6243,0,0,0,0,0,0,0,0,0,0,0,0,0,0,0,0,0,0,0,0,0,0,0,0,0,0,0,0,0,0,0,0,0,0,0,0,0,0,0,0,0,0,0,0,0,0,0,0,0,0,0,0,0,0,0,0,0,0,0,0,0,0,0,0,0,0,0,0,0]}]]]